Weather History for Clarinda, IA

Change the Weather History Date:

Tuesday, December 4, 2012

  Actual Average Record
Temperature  
Mean Temperature 40 °F -  
Max Temperature 60 °F 44 °F 71 °F (2001)
Min Temperature 21 °F 26 °F 6 °F (2005)
Degree Days  
Heating Degree Days 24    
Moisture  
Dew Point 22 °F    
Average Humidity 63    
Maximum Humidity 93    
Minimum Humidity 17    
Precipitation  
Precipitation 0.00 in - - ()
Sea Level Pressure  
Sea Level Pressure 30.22 in    
Wind  
Wind Speed 2 mph (WNW)    
Max Wind Speed 12 mph    
Max Gust Speed -    
Visibility 10 miles    
Events      
Averages and records for this station are not official NWS values.
T = Trace of Precipitation, MM = Missing Value Source: NWS Daily Summary

Daily Weather History Graph

Daily Weather History Graph

Search for Another Location

Airport:

Trip Planner

Search our weather history database for the weather conditions in past years. The results will help you decide how hot, cold, wet, or windy it might be!

Date:

Astronomy

Dec. 04, 2012 Rise Set
Actual Time 7:28 AM CST 4:52 PM CST
Civil Twilight 6:57 AM CST 5:23 PM CST
Nautical Twilight 6:23 AM CST 5:57 PM CST
Astronomical Twilight 5:50 AM CST 6:30 PM CST
Moon 10:42 PM CST (12/4) 11:21 AM CST (12/4)
Length of Visible Light 10h 25m
Length of Day
9h 24m
Waning Gibbous, 69% of the Moon is Illuminated
Dec 4
Waning Gibbous
Dec 6
Last Quarter
Dec 13
New
Dec 19
First Quarter
Dec 28
Full

Hourly Weather History & Observations

Time (CST) Temp. Windchill Dew Point Humidity Pressure Visibility Wind Dir Wind Speed Gust Speed Precip Events Conditions
12:15 AM 35.6 °F 31.7 °F 26.6 °F 70% 30.07 in 10.0 mi NNE 4.6 mph - N/A   Clear
12:35 AM 35.6 °F - 26.6 °F 70% 30.08 in 10.0 mi Calm Calm - N/A   Clear
12:55 AM 33.8 °F - 26.6 °F 75% 30.09 in 10.0 mi Calm Calm - N/A   Clear
1:15 AM 28.4 °F - 24.8 °F 86% 30.09 in 10.0 mi Calm Calm - N/A   Clear
1:35 AM 28.4 °F - 26.6 °F 93% 30.10 in 10.0 mi Calm Calm - N/A   Clear
1:55 AM 26.6 °F - 23.0 °F 86% 30.11 in 10.0 mi Calm Calm - N/A   Clear
2:15 AM 28.4 °F - 24.8 °F 86% 30.11 in 10.0 mi Calm Calm - N/A   Clear
2:55 AM 26.6 °F - 23.0 °F 86% 30.12 in 10.0 mi Calm Calm - N/A   Clear
3:15 AM 26.6 °F - 24.8 °F 93% 30.12 in 10.0 mi Calm Calm - N/A   Clear
3:35 AM 26.6 °F - 23.0 °F 86% 30.13 in 10.0 mi Calm Calm - N/A   Clear
3:55 AM 26.6 °F - 23.0 °F 86% 30.13 in 10.0 mi Calm Calm - N/A   Clear
4:15 AM 24.8 °F - 21.2 °F 86% 30.14 in 10.0 mi Calm Calm - N/A   Clear
4:35 AM 24.8 °F - 21.2 °F 86% 30.15 in 10.0 mi Calm Calm - N/A   Clear
4:55 AM 24.8 °F - 21.2 °F 86% 30.16 in 10.0 mi Calm Calm - N/A   Clear
5:15 AM 24.8 °F - 21.2 °F 86% 30.17 in 10.0 mi Calm Calm - N/A   Clear
5:35 AM 23.0 °F - 19.4 °F 86% 30.18 in 10.0 mi Calm Calm - N/A   Clear
5:55 AM 23.0 °F - 19.4 °F 86% 30.19 in 10.0 mi Calm Calm - N/A   Clear
6:15 AM 21.2 °F - 17.6 °F 86% 30.19 in 10.0 mi Calm Calm - N/A   Clear
6:35 AM 21.2 °F - 17.6 °F 86% 30.20 in 10.0 mi Calm Calm - N/A   Clear
6:55 AM 21.2 °F - 19.4 °F 93% 30.21 in 10.0 mi Calm Calm - N/A   Clear
7:15 AM 21.2 °F - 19.4 °F 93% 30.22 in 10.0 mi Calm Calm - N/A   Clear
7:35 AM 21.2 °F - 19.4 °F 93% 30.22 in 10.0 mi Calm Calm - N/A   Clear
7:55 AM 23.0 °F - 19.4 °F 86% 30.23 in 10.0 mi Calm Calm - N/A   Clear
8:15 AM 24.8 °F - 21.2 °F 86% 30.23 in 10.0 mi Calm Calm - N/A   Clear
8:35 AM 28.4 °F - 23.0 °F 80% 30.24 in 10.0 mi Calm Calm - N/A   Clear
8:55 AM 30.2 °F - 24.8 °F 80% 30.24 in 10.0 mi Calm Calm - N/A   Clear
9:15 AM 33.8 °F - 26.6 °F 75% 30.24 in 10.0 mi Calm Calm - N/A   Clear
9:35 AM 39.2 °F - 28.4 °F 65% 30.25 in 10.0 mi Calm Calm - N/A   Clear
9:55 AM 41.0 °F 39.0 °F 28.4 °F 61% 30.25 in 10.0 mi South 3.5 mph - N/A   Clear
10:15 AM 44.6 °F - 30.2 °F 57% 30.25 in 10.0 mi Calm Calm - N/A   Clear
10:35 AM 48.2 °F - 28.4 °F 46% 30.26 in 10.0 mi Calm Calm - N/A   Clear
10:55 AM 51.8 °F - 24.8 °F 35% 30.25 in 10.0 mi Calm Calm - N/A   Clear
11:15 AM 53.6 °F - 21.2 °F 28% 30.25 in 10.0 mi West 5.8 mph - N/A   Clear
11:35 AM 55.4 °F - 21.2 °F 26% 30.25 in 10.0 mi West 3.5 mph - N/A   Clear
11:55 AM 55.4 °F - 21.2 °F 26% 30.24 in 10.0 mi WSW 4.6 mph - N/A   Clear
12:15 PM 57.2 °F - 19.4 °F 23% 30.23 in 10.0 mi West 4.6 mph - N/A   Clear
12:35 PM 59.0 °F - 19.4 °F 22% 30.23 in 10.0 mi West 6.9 mph - N/A   Clear
12:55 PM 60.8 °F - 15.8 °F 17% 30.22 in 10.0 mi West 8.1 mph - N/A   Clear
1:15 PM 60.8 °F - 15.8 °F 17% 30.22 in 10.0 mi West 8.1 mph - N/A   Clear
1:35 PM 60.8 °F - 15.8 °F 17% 30.22 in 10.0 mi West 6.9 mph - N/A   Clear
1:55 PM 60.8 °F - 17.6 °F 19% 30.22 in 10.0 mi WNW 10.4 mph - N/A   Clear
2:15 PM 60.8 °F - 17.6 °F 19% 30.22 in 10.0 mi NW 8.1 mph - N/A   Clear
2:35 PM 60.8 °F - 15.8 °F 17% 30.22 in 10.0 mi WNW 11.5 mph - N/A   Clear
2:55 PM 60.8 °F - 17.6 °F 19% 30.22 in 10.0 mi West 6.9 mph - N/A   Clear
3:15 PM 60.8 °F - 17.6 °F 19% 30.22 in 10.0 mi West 6.9 mph - N/A   Clear
3:35 PM 59.0 °F - 19.4 °F 22% 30.23 in 10.0 mi West 6.9 mph - N/A   Clear
3:55 PM 57.2 °F - 21.2 °F 25% 30.22 in 10.0 mi West 3.5 mph - N/A   Clear
4:15 PM 57.2 °F - 21.2 °F 25% 30.23 in 10.0 mi Calm Calm - N/A   Clear
4:55 PM 50.0 °F - 21.2 °F 32% 30.24 in 10.0 mi Calm Calm - N/A   Clear
5:15 PM 46.4 °F - 21.2 °F 37% 30.25 in 10.0 mi Calm Calm - N/A   Clear
5:35 PM 44.6 °F - 23.0 °F 43% 30.25 in 10.0 mi Calm Calm - N/A   Clear
5:55 PM 39.2 °F - 24.8 °F 56% 30.26 in 10.0 mi Calm Calm - N/A   Clear
6:15 PM 37.4 °F - 23.0 °F 56% 30.26 in 10.0 mi Calm Calm - N/A   Clear
6:35 PM 35.6 °F - 23.0 °F 60% 30.25 in 10.0 mi Calm Calm - N/A   Clear
6:55 PM 30.2 °F - 21.2 °F 69% 30.26 in 10.0 mi Calm Calm - N/A   Clear
7:15 PM 30.2 °F - 23.0 °F 75% 30.26 in 10.0 mi Calm Calm - N/A   Clear
7:35 PM 30.2 °F - 23.0 °F 75% 30.26 in 10.0 mi Calm Calm - N/A   Clear
7:55 PM 30.2 °F - 24.8 °F 80% 30.27 in 10.0 mi Calm Calm - N/A   Clear
8:15 PM 28.4 °F - 21.2 °F 74% 30.28 in 10.0 mi Calm Calm - N/A   Clear
8:35 PM 28.4 °F - 23.0 °F 80% 30.28 in 10.0 mi Calm Calm - N/A   Clear
8:55 PM 28.4 °F - 21.2 °F 74% 30.27 in 10.0 mi Calm Calm - N/A   Clear
9:15 PM 30.2 °F - 23.0 °F 75% 30.28 in 10.0 mi Calm Calm - N/A   Clear
9:35 PM 30.2 °F - 24.8 °F 80% 30.27 in 10.0 mi Calm Calm - N/A   Clear
9:55 PM 28.4 °F - 23.0 °F 80% 30.28 in 10.0 mi Calm Calm - N/A   Clear
10:15 PM 28.4 °F - 23.0 °F 80% 30.29 in 10.0 mi Calm Calm - N/A   Clear
10:35 PM 30.2 °F 25.4 °F 23.0 °F 75% 30.29 in 10.0 mi North 4.6 mph - N/A   Clear
10:55 PM 30.2 °F - 23.0 °F 75% 30.29 in 10.0 mi Calm Calm - N/A   Clear
11:15 PM 30.2 °F 26.7 °F 21.2 °F 69% 30.30 in 10.0 mi North 3.5 mph - N/A   Clear
11:35 PM 28.4 °F - 21.2 °F 74% 30.31 in 10.0 mi Calm Calm - N/A   Clear
11:55 PM 28.4 °F - 21.2 °F 74% 30.31 in 10.0 mi Calm Calm - N/A   Clear